Regional Weather Roundup
Issued by NWS Bismarck, ND

Home | Current Version | Previous Version | Text Only | Print | Product List | Glossary On
Versions: 1 2 3 4 5 6 7 8 9 10 11 12 13 14 15 16 17 18 19 20 21 22 23 24 25 26 27 28 29 30 31 32 33 34 35 36 37 38 39 40 41 42 43 44 45 46 47 48 49 50
000
ASUS43 KBIS 241310
RWRBIS

NWR BROADCAST TEXT
NATIONAL WEATHER SERVICE BISMARCK ND
800 AM CDT SUN JUL 24 2016

NOTE: "FAIR" INDICATES FEW OR NO CLOUDS BELOW 12,000 FEET WITH NO
SIGNIFICANT WEATHER AND/OR OBSTRUCTIONS TO VISIBILITY.


CITY           SKY/WX    TMP DP  RH WIND       PRES   REMARKS
WILLISTON      SUNNY     60  53  77 SW7       30.03R
MINOT          SUNNY     67  56  67 W12       29.97R
MINOT AFB      SUNNY     63  57  80 W13       29.95R
BISMARCK       MOSUNNY   64  56  75 W8        30.01R
DICKINSON      SUNNY     59  53  80 W7        30.05S
GARRISON         N/A     62  58  86 W9        30.00R
HETTINGER ARPT CLOUDY    56  51  84 W5        30.08S
JAMESTOWN      SUNNY     66  60  81 W12       29.94R
BEACH          FAIR      57  54  88 CALM      30.11S
CARRINGTON     FAIR      64  59  82 W14       29.96S
HAZEN          FAIR      59  55  88 W8        30.03S
LINTON         FAIR      61  61 100 W7        30.03R
MANDAN         FAIR      63  55  77 W10       30.02S
OAKES            N/A    N/A N/A N/A MISG        N/A
STANLEY        FAIR      61  61 100 W7        30.04R
WATFORD CITY     N/A    N/A N/A N/A MISG        N/A
$$

CITY           SKY/WX    TMP DP  RH WIND       PRES   REMARKS
GRAND FORKS    MOSUNNY   67  60  78 W9        29.84R
GRAND FORKS AF SUNNY     67  60  77 W10       29.85R
DEVILS LAKE    SUNNY     65  59  81 W17       29.90R
FARGO          SUNNY     67  61  81 W10       29.88R
CAVALIER       FAIR      66  59  77 W12       29.81R
GRAFTON        FAIR      66  61  82 W12       29.84R
GWINNER        FAIR      66  61  82 W13G18    29.94R
LANGDON        FAIR      63  61  94 W14       29.87R
ROLLA            N/A     64  57  77 NW10G17   29.90R
$$

CITY           SKY/WX    TMP DP  RH WIND       PRES   REMARKS
ABERDEEN       MOSUNNY   68  58  70 NW14      29.96R
MOBRIDGE       MOSUNNY   66  58  75 W6        30.02R
BUFFALO          N/A     64  51  62 SW5       30.06R
RAPID CITY     CLOUDY    62  56  80 CALM      30.13R
GLASGOW        SUNNY     58  54  86 CALM      30.04R
SIDNEY         SUNNY     58  54  86 SW6       30.06R
WOLF POINT     MOSUNNY   56  52  86 S3        30.06R
GLENDIVE       SUNNY     60  52  74 CALM      30.08R
MILES CITY     SUNNY     63  48  58 S3        30.07S
BAKER          SUNNY     59  51  75 CALM      30.10S
$$

CITY           SKY/WX    TMP DP  RH WIND       PRES   REMARKS
BILLINGS       MOSUNNY   59  47  64 SW12      30.12R
GREAT FALLS    CLEAR     55  41  59 S8        30.13R
REGINA         MOSUNNY   59  54  82 W10G17    29.97S
ESTEVAN        MOSUNNY   59  55  88 W9        29.99R
$$




USA.gov is the U.S. government's official web portal to all federal, state and local government web resources and services.